Zurück zum Katalog

ARVAKER-2

AktivWissenschaftSSO
NORAD 64567·PAYLOAD·🇳🇴 Norway

Gestartet Jun 23, 2025 von Vandenberg Space Force Base

Loading…

Nächste Überflüge (nächste 24 Stunden)

TLE

AktuellSource: Space-Track

Epoche: Sep 14, 2026, 14:20 UTC

1 64567U 25135AR  26257.59753688  .00001860  00000-0  18054-3 0  9993
2 64567  97.7810  10.8130 0002192  56.3990 303.7438 14.93851306 67226

Verfolge ARVAKER-2 in Echtzeit mit AllMySat

Download on the App Store